This is the latest recevied weather packets stored in our database for station/object W4TJP. If no packets are shown the sender has not sent any weather packets the latest 10 day(s).
| Time | Temp. | Humidity | Pressure | Rain* | Wind** | Luminosity | Snow |
|---|---|---|---|---|---|---|---|
| 1778002828 | 22.22° C | 54% | 1012.8 hPa | 0 mm | - | 358 W/m² | - |
| 1778002525 | 22.22° C | 56% | 1012.9 hPa | 0 mm | - | 481 W/m² | - |
| 1778002222 | 21.67° C | 57% | 1013.3 hPa | 0 mm | - | 336 W/m² | - |
| 1778001920 | 21.67° C | 55% | 1013.2 hPa | 0 mm | - | 400 W/m² | - |
| 1778001615 | 21.11° C | 57% | 1013.5 hPa | 0 mm | - | 426 W/m² | - |
| 1778001311 | 21.67° C | 56% | 1013.5 hPa | 0 mm | - | 352 W/m² | - |
| 1778001008 | 21.67° C | 56% | 1013.6 hPa | 0 mm | - | 306 W/m² | - |
| 1778000705 | 21.67° C | 57% | 1013.6 hPa | 0 mm | - | 397 W/m² | - |
| 1778000400 | 21.11° C | 57% | 1013.8 hPa | 0 mm | - | 504 W/m² | - |
| 1778000096 | 20.56° C | 58% | 1013.6 hPa | 0 mm | - | 452 W/m² | - |
| 1777999792 | 21.11° C | 59% | 1013.9 hPa | 0 mm | - | 318 W/m² | - |
| 1777999488 | 21.11° C | 60% | 1014.1 hPa | 0 mm | - | 279 W/m² | - |
| 1777999186 | 21.11° C | 59% | 1013.9 hPa | 0 mm | - | 410 W/m² | - |
| 1777998885 | 21.11° C | 60% | 1014.2 hPa | 0 mm | - | 351 W/m² | - |
| 1777998584 | 21.67° C | 60% | 1014.1 hPa | 0 mm | - | 387 W/m² | - |
| 1777998279 | 20.56° C | 61% | 1014.3 hPa | 0 mm | - | 582 W/m² | - |
| 1777997976 | 20.56° C | 63% | 1014.3 hPa | 0 mm | - | 581 W/m² | - |
| 1777997672 | 20° C | 64% | 1014 hPa | 0 mm | - | 413 W/m² | - |
| 1777997370 | 20° C | 63% | 1014.1 hPa | 0 mm | - | 252 W/m² | - |
| 1777997069 | 20° C | 65% | 1014.3 hPa | 0 mm | - | 299 W/m² | - |
| 1777996764 | 20° C | 65% | 1014.1 hPa | 0 mm | - | 250 W/m² | - |
| 1777996461 | 20° C | 62% | 1014 hPa | 0 mm | - | 233 W/m² | - |
| 1777996158 | 20° C | 67% | 1014 hPa | 0 mm | - | 274 W/m² | - |
| 1777995854 | 19.44° C | 65% | 1013.9 hPa | 0 mm | - | 252 W/m² | - |
| 1777995550 | 19.44° C | 65% | 1014.2 hPa | 0 mm | - | 205 W/m² | - |
* Rain latest hour (hover to see other rain measurements)
** Current wind speed in m/s (hover to see current wind gust speed)